ASL417 LIMC-LYBE

Flight info

Callsign ASL417
Flight time 1h 33m
Altitude 37000
Route OSKOR DCT NOBMI DCT IDREK DCT PEVAL DCT RUDIK DCT SOMUN L5 ENUPU
Aircraft A319/M-SDE3FGHIRWY/LB1

Departure

Time 2026-05-01 08:08
Airport Milan Malpensa International Airport (LIMC)

Arrival

Time 2026-05-01 09:42
Airport Belgrade Nikola Tesla Airport (LYBE)
Time Latitude Longitude Altitude Speed Heading
2026-05-01 07:37 45.62456 8.71768 737 ft 0 kts 259°
2026-05-01 07:52 45.62457 8.71776 736 ft 4 kts 258°
2026-05-01 07:52 45.62464 8.71814 736 ft 4 kts 251°
2026-05-01 07:52 45.62474 8.71849 735 ft 4 kts 235°
2026-05-01 07:53 45.62501 8.71871 736 ft 1 kts 169°
2026-05-01 07:53 45.62502 8.71871 736 ft 0 kts 169°
2026-05-01 07:56 45.62499 8.71872 736 ft 2 kts 169°
2026-05-01 07:56 45.62423 8.71892 736 ft 9 kts 169°
2026-05-01 07:57 45.62354 8.71911 736 ft 11 kts 169°
2026-05-01 07:57 45.62165 8.71963 737 ft 16 kts 170°
2026-05-01 07:58 45.61987 8.72013 735 ft 13 kts 169°
2026-05-01 07:58 45.61779 8.72072 736 ft 17 kts 168°
2026-05-01 07:59 45.61549 8.72134 736 ft 16 kts 169°
2026-05-01 07:59 45.61320 8.72198 736 ft 13 kts 169°
2026-05-01 08:00 45.60934 8.72304 736 ft 14 kts 169°
2026-05-01 08:01 45.60658 8.72422 737 ft 13 kts 126°
2026-05-01 08:01 45.60635 8.72532 737 ft 13 kts 97°
2026-05-01 08:01 45.60625 8.72668 737 ft 15 kts 96°
2026-05-01 08:02 45.60602 8.72983 737 ft 17 kts 96°
2026-05-01 08:02 45.60591 8.73121 737 ft 13 kts 95°
2026-05-01 08:03 45.60710 8.73313 737 ft 16 kts 22°
2026-05-01 08:03 45.60793 8.73361 737 ft 13 kts 22°
2026-05-01 08:03 45.60984 8.73383 737 ft 16 kts 348°
2026-05-01 08:04 45.61193 8.73326 736 ft 15 kts 349°
2026-05-01 08:04 45.61415 8.73264 737 ft 17 kts 349°
2026-05-01 08:05 45.61579 8.73223 737 ft 8 kts
2026-05-01 08:05 45.61613 8.73280 737 ft 9 kts 70°
2026-05-01 08:05 45.61627 8.73364 737 ft 9 kts 78°
2026-05-01 08:06 45.61591 8.73537 737 ft 9 kts 107°
2026-05-01 08:06 45.61602 8.73687 737 ft 7 kts 55°
2026-05-01 08:07 45.61738 8.73703 737 ft 26 kts 351°
2026-05-01 08:07 45.62897 8.73383 736 ft 140 kts 349°
2026-05-01 08:08 45.63995 8.73087 934 ft 170 kts 352°
2026-05-01 08:08 45.66248 8.73750 2088 ft 181 kts 48°
2026-05-01 08:09 45.68037 8.76700 3143 ft 205 kts 50°
2026-05-01 08:09 45.69005 8.78218 3866 ft 209 kts 48°
2026-05-01 08:09 45.69993 8.79756 4685 ft 211 kts 47°
2026-05-01 08:10 45.71975 8.82920 6232 ft 224 kts 55°
2026-05-01 08:10 45.72668 8.87404 7675 ft 245 kts 96°
2026-05-01 08:11 45.71069 8.91694 9502 ft 255 kts 138°
2026-05-01 08:11 45.67700 8.93301 11183 ft 269 kts 183°
2026-05-01 08:12 45.64096 8.91575 12737 ft 278 kts 196°
2026-05-01 08:12 45.62209 8.90952 13517 ft 280 kts 185°
2026-05-01 08:12 45.58311 8.90975 14768 ft 294 kts 173°
2026-05-01 08:13 45.56195 8.91211 14958 ft 317 kts 172°
2026-05-01 08:13 45.53945 8.91676 15097 ft 337 kts 160°
2026-05-01 08:13 45.50227 8.95821 15726 ft 351 kts 117°
2026-05-01 08:14 45.49377 8.99050 16329 ft 349 kts 98°
2026-05-01 08:14 45.48973 9.02467 17000 ft 351 kts 96°
2026-05-01 08:14 45.48592 9.05863 17660 ft 353 kts 96°
2026-05-01 08:14 45.48206 9.09332 18320 ft 356 kts 96°
2026-05-01 08:15 45.47814 9.12828 18937 ft 359 kts 96°
2026-05-01 08:15 45.47006 9.19908 20072 ft 365 kts 96°
2026-05-01 08:15 45.46716 9.23499 20631 ft 365 kts 88°
2026-05-01 08:16 45.46910 9.27100 21189 ft 365 kts 77°
2026-05-01 08:16 45.47610 9.30574 21742 ft 365 kts 66°
2026-05-01 08:16 45.48775 9.33790 22288 ft 367 kts 57°
2026-05-01 08:16 45.50106 9.36907 22843 ft 370 kts 57°
2026-05-01 08:17 45.51422 9.40003 23286 ft 370 kts 57°
2026-05-01 08:17 45.52751 9.43147 23849 ft 371 kts 57°
2026-05-01 08:17 45.54083 9.46315 24299 ft 373 kts 57°
2026-05-01 08:17 45.55364 9.49553 24737 ft 377 kts 63°
2026-05-01 08:18 45.56270 9.53085 25164 ft 382 kts 72°
2026-05-01 08:18 45.57400 9.60566 26003 ft 388 kts 75°
2026-05-01 08:19 45.58527 9.68101 27018 ft 393 kts 75°
2026-05-01 08:19 45.59099 9.71923 27428 ft 395 kts 75°
2026-05-01 08:19 45.59674 9.75779 27841 ft 398 kts 75°
2026-05-01 08:19 45.60249 9.79648 28254 ft 400 kts 75°
2026-05-01 08:20 45.60824 9.83540 28752 ft 401 kts 74°
2026-05-01 08:20 45.61398 9.87444 29206 ft 402 kts 74°
2026-05-01 08:20 45.61972 9.91361 29610 ft 404 kts 74°
2026-05-01 08:20 45.62549 9.95300 29996 ft 407 kts 74°
2026-05-01 08:21 45.63127 9.99266 30366 ft 409 kts 74°
2026-05-01 08:21 45.63704 10.03258 30694 ft 411 kts 74°
2026-05-01 08:21 45.64283 10.07267 30966 ft 413 kts 74°
2026-05-01 08:21 45.64795 10.11267 31236 ft 418 kts 79°
2026-05-01 08:22 45.64928 10.15441 31523 ft 424 kts 85°
2026-05-01 08:22 45.64918 10.19664 31816 ft 425 kts 85°
2026-05-01 08:22 45.64905 10.23897 32147 ft 427 kts 85°
2026-05-01 08:22 45.64892 10.28127 32555 ft 425 kts 85°
2026-05-01 08:23 45.64878 10.32335 33036 ft 422 kts 84°
2026-05-01 08:23 45.64866 10.36524 33450 ft 422 kts 84°
2026-05-01 08:23 45.64853 10.40709 33858 ft 421 kts 84°
2026-05-01 08:23 45.64837 10.44891 34278 ft 420 kts 84°
2026-05-01 08:24 45.64818 10.49003 34652 ft 420 kts 84°
2026-05-01 08:24 45.64798 10.53174 34970 ft 420 kts 85°
2026-05-01 08:24 45.64776 10.57354 35223 ft 422 kts 85°
2026-05-01 08:24 45.64754 10.61553 35515 ft 423 kts 84°
2026-05-01 08:25 45.64729 10.65760 35804 ft 424 kts 85°
2026-05-01 08:25 45.64702 10.69976 36079 ft 425 kts 85°
2026-05-01 08:25 45.64672 10.74204 36338 ft 426 kts 85°
2026-05-01 08:25 45.64643 10.78444 36584 ft 427 kts 85°
2026-05-01 08:26 45.64498 10.82702 36814 ft 433 kts 92°
2026-05-01 08:26 45.63997 10.86908 37043 ft 437 kts 95°
2026-05-01 08:26 45.63446 10.91184 37287 ft 438 kts 95°
2026-05-01 08:26 45.62894 10.95465 37400 ft 438 kts 95°
2026-05-01 08:27 45.62341 10.99733 37405 ft 436 kts 95°
2026-05-01 08:27 45.61244 11.08249 37404 ft 436 kts 95°
2026-05-01 08:28 45.60151 11.16758 37403 ft 436 kts 95°
2026-05-01 08:28 45.59060 11.25210 37405 ft 436 kts 95°
2026-05-01 08:29 45.57947 11.33717 37404 ft 436 kts 95°
2026-05-01 08:29 45.56827 11.42214 37406 ft 436 kts 95°
2026-05-01 08:30 45.55698 11.50705 37403 ft 436 kts 95°
2026-05-01 08:30 45.54567 11.59135 37407 ft 436 kts 95°
2026-05-01 08:31 45.53431 11.67623 37405 ft 436 kts 95°
2026-05-01 08:31 45.52294 11.76111 37451 ft 435 kts 95°
2026-05-01 08:32 45.51143 11.84582 37435 ft 435 kts 95°
2026-05-01 08:32 45.49994 11.92990 37428 ft 435 kts 95°
2026-05-01 08:33 45.48830 12.01451 37426 ft 435 kts 95°
2026-05-01 08:33 45.47659 12.09906 37422 ft 435 kts 95°
2026-05-01 08:34 45.47253 12.12841 37435 ft 435 kts 95°
2026-05-01 08:34 45.46255 12.20049 37447 ft 434 kts 95°
2026-05-01 08:35 45.45085 12.28470 37439 ft 433 kts 95°
2026-05-01 08:35 45.43905 12.36877 37430 ft 433 kts 95°
2026-05-01 08:36 45.42713 12.45268 37422 ft 432 kts 95°
2026-05-01 08:36 45.41518 12.53654 37453 ft 432 kts 95°
2026-05-01 08:37 45.40328 12.61975 37436 ft 432 kts 95°
2026-05-01 08:37 45.39122 12.70338 37424 ft 431 kts 96°
2026-05-01 08:38 45.37913 12.78697 37417 ft 431 kts 96°
2026-05-01 08:38 45.36705 12.87049 37404 ft 431 kts 96°
2026-05-01 08:39 45.35486 12.95396 37414 ft 431 kts 96°
2026-05-01 08:39 45.34266 13.03685 37413 ft 431 kts 96°
2026-05-01 08:40 45.32425 13.16198 37393 ft 431 kts 96°
2026-05-01 08:40 45.31176 13.24533 37389 ft 431 kts 96°
2026-05-01 08:41 45.30217 13.32889 37412 ft 427 kts 91°
2026-05-01 08:41 45.29569 13.41246 37401 ft 425 kts 90°
2026-05-01 08:42 45.28920 13.49540 37394 ft 426 kts 91°
2026-05-01 08:42 45.28174 13.57880 37387 ft 426 kts 91°
2026-05-01 08:43 45.27382 13.66216 37404 ft 426 kts 91°
2026-05-01 08:43 45.26593 13.74538 37390 ft 425 kts 91°
2026-05-01 08:44 45.25821 13.82803 37382 ft 425 kts 91°
2026-05-01 08:44 45.25038 13.91112 37376 ft 425 kts 91°
2026-05-01 08:45 45.24243 13.99423 37367 ft 425 kts 91°
2026-05-01 08:45 45.23440 14.07731 37386 ft 425 kts 92°
2026-05-01 08:46 45.22642 14.15980 37389 ft 425 kts 91°
2026-05-01 08:46 45.21834 14.24284 37382 ft 425 kts 92°
2026-05-01 08:47 45.21016 14.32587 37385 ft 425 kts 92°
2026-05-01 08:47 45.20193 14.40886 37410 ft 425 kts 92°
2026-05-01 08:48 45.19359 14.49185 37397 ft 425 kts 92°
2026-05-01 08:48 45.18529 14.57425 37395 ft 425 kts 92°
2026-05-01 08:49 45.17694 14.65716 37391 ft 425 kts 92°
2026-05-01 08:49 45.16848 14.74005 37388 ft 425 kts 92°
2026-05-01 08:50 45.15988 14.82296 37387 ft 426 kts 92°
2026-05-01 08:50 45.15130 14.90553 37373 ft 427 kts 92°
2026-05-01 08:51 45.14265 14.98879 37379 ft 427 kts 92°
2026-05-01 08:51 45.13387 15.07211 37392 ft 428 kts 92°
2026-05-01 08:52 45.12502 15.15541 37387 ft 428 kts 93°
2026-05-01 08:52 45.11620 15.23816 37399 ft 428 kts 93°
2026-05-01 08:53 45.10724 15.32151 37401 ft 428 kts 93°
2026-05-01 08:53 45.09819 15.40483 37400 ft 428 kts 93°
2026-05-01 08:54 45.08917 15.48807 37399 ft 428 kts 93°
2026-05-01 08:54 45.08010 15.57086 37401 ft 429 kts 94°
2026-05-01 08:55 45.07079 15.65430 37396 ft 430 kts 94°
2026-05-01 08:55 45.06146 15.73790 37382 ft 431 kts 94°
2026-05-01 08:56 45.05213 15.82161 37382 ft 431 kts 94°
2026-05-01 08:56 45.04277 15.90482 37411 ft 431 kts 94°
2026-05-01 08:57 45.03324 15.98865 37383 ft 432 kts 94°
2026-05-01 08:57 45.02364 16.07267 37376 ft 433 kts 94°
2026-05-01 08:58 45.01396 16.15677 37371 ft 434 kts 94°
2026-05-01 08:58 45.00413 16.24090 37384 ft 434 kts 94°
2026-05-01 08:59 44.99433 16.32441 37417 ft 434 kts 95°
2026-05-01 08:59 44.98364 16.40846 37400 ft 435 kts 96°
2026-05-01 09:00 44.97235 16.49240 37398 ft 435 kts 96°
2026-05-01 09:00 44.96110 16.57637 37397 ft 435 kts 96°
2026-05-01 09:01 44.95005 16.65975 37418 ft 435 kts 96°
2026-05-01 09:01 44.93890 16.74378 37405 ft 436 kts 96°
2026-05-01 09:02 44.92768 16.82785 37399 ft 436 kts 96°
2026-05-01 09:02 44.91625 16.91190 37403 ft 436 kts 96°
2026-05-01 09:03 44.90479 16.99601 37407 ft 437 kts 96°
2026-05-01 09:03 44.89340 17.07960 37415 ft 437 kts 97°
2026-05-01 09:04 44.88180 17.16388 37408 ft 438 kts 97°
2026-05-01 09:04 44.87008 17.24821 37408 ft 439 kts 97°
2026-05-01 09:05 44.85844 17.33210 37410 ft 439 kts 97°
2026-05-01 09:05 44.84671 17.41652 37424 ft 439 kts 97°
2026-05-01 09:06 44.83479 17.50100 37414 ft 440 kts 97°
2026-05-01 09:06 44.82283 17.58554 37410 ft 440 kts 97°
2026-05-01 09:07 44.81084 17.67012 37407 ft 440 kts 97°
2026-05-01 09:07 44.79884 17.75410 37414 ft 441 kts 97°
2026-05-01 09:08 44.78665 17.83872 37407 ft 441 kts 97°
2026-05-01 09:08 44.77438 17.92341 37404 ft 442 kts 98°
2026-05-01 09:09 44.76203 18.00807 37402 ft 442 kts 98°
2026-05-01 09:09 44.74973 18.09220 37399 ft 442 kts 98°
2026-05-01 09:10 44.73730 18.17698 37400 ft 443 kts 98°
2026-05-01 09:10 44.72481 18.26185 37395 ft 444 kts 98°
2026-05-01 09:11 44.71217 18.34679 37394 ft 444 kts 98°
2026-05-01 09:11 44.69951 18.43114 37390 ft 444 kts 98°
2026-05-01 09:12 44.68671 18.51611 37392 ft 445 kts 98°
2026-05-01 09:12 44.67391 18.60112 37381 ft 445 kts 98°
2026-05-01 09:13 44.66098 18.68621 37188 ft 446 kts 98°
2026-05-01 09:13 44.65458 18.72815 36937 ft 444 kts 98°
2026-05-01 09:13 44.64812 18.77051 36700 ft 443 kts 98°
2026-05-01 09:14 44.64166 18.81277 36173 ft 443 kts 98°
2026-05-01 09:14 44.63514 18.85527 35382 ft 448 kts 98°
2026-05-01 09:14 44.62855 18.89822 34544 ft 452 kts 98°
2026-05-01 09:14 44.62190 18.94140 33874 ft 450 kts 98°
2026-05-01 09:15 44.61527 18.98429 33049 ft 450 kts 98°
2026-05-01 09:15 44.60861 19.02724 32175 ft 451 kts 98°
2026-05-01 09:15 44.60200 19.07029 31310 ft 450 kts 97°
2026-05-01 09:15 44.59886 19.11299 30619 ft 442 kts 88°
2026-05-01 09:16 44.60050 19.15570 29806 ft 436 kts 81°
2026-05-01 09:16 44.60384 19.19783 29075 ft 432 kts 81°
2026-05-01 09:16 44.60711 19.23938 28469 ft 425 kts 81°
2026-05-01 09:17 44.61429 19.32060 27247 ft 413 kts 75°
2026-05-01 09:17 44.62262 19.35867 26673 ft 405 kts 65°
2026-05-01 09:17 44.65181 19.42441 25517 ft 393 kts 50°
2026-05-01 09:18 44.66850 19.45391 24962 ft 389 kts 50°
2026-05-01 09:18 44.70170 19.51319 23877 ft 383 kts 51°
2026-05-01 09:19 44.73413 19.57136 22821 ft 373 kts 51°
2026-05-01 09:19 44.75005 19.59986 22341 ft 368 kts 51°
2026-05-01 09:19 44.76578 19.62802 21857 ft 364 kts 51°
2026-05-01 09:20 44.79667 19.68340 20918 ft 355 kts 51°
2026-05-01 09:20 44.82662 19.73722 19959 ft 348 kts 51°
2026-05-01 09:21 44.85611 19.79042 18961 ft 342 kts 51°
2026-05-01 09:21 44.86971 19.81770 18433 ft 341 kts 60°
2026-05-01 09:21 44.87901 19.88233 17367 ft 342 kts 92°
2026-05-01 09:22 44.86170 19.94470 16286 ft 347 kts 118°
2026-05-01 09:22 44.83648 20.00175 15201 ft 343 kts 118°
2026-05-01 09:23 44.82392 20.03021 14656 ft 341 kts 118°
2026-05-01 09:23 44.79900 20.08669 13524 ft 337 kts 118°
2026-05-01 09:24 44.77453 20.14217 12462 ft 331 kts 118°
2026-05-01 09:24 44.76243 20.16956 11936 ft 328 kts 118°
2026-05-01 09:24 44.73862 20.22321 10913 ft 323 kts 118°
2026-05-01 09:25 44.71580 20.27453 10631 ft 296 kts 118°
2026-05-01 09:25 44.69463 20.32218 10257 ft 281 kts 117°
2026-05-01 09:26 44.68433 20.34544 10122 ft 280 kts 117°
2026-05-01 09:26 44.66723 20.38404 9451 ft 282 kts 118°
2026-05-01 09:26 44.65338 20.41520 8941 ft 280 kts 118°
2026-05-01 09:27 44.63286 20.46096 7948 ft 276 kts 119°
2026-05-01 09:27 44.62266 20.48381 7561 ft 277 kts 120°
2026-05-01 09:27 44.61246 20.50668 7182 ft 276 kts 120°
2026-05-01 09:28 44.60571 20.52180 6941 ft 275 kts 120°
2026-05-01 09:28 44.59564 20.54432 6765 ft 270 kts 120°
2026-05-01 09:28 44.58581 20.56626 6691 ft 259 kts 120°
2026-05-01 09:28 44.57640 20.58718 6619 ft 248 kts 120°
2026-05-01 09:29 44.55597 20.63264 6389 ft 226 kts 120°
2026-05-01 09:29 44.55038 20.64505 6320 ft 221 kts 120°
2026-05-01 09:30 44.53441 20.68045 6130 ft 208 kts 120°
2026-05-01 09:30 44.52689 20.69713 6040 ft 199 kts 120°
2026-05-01 09:30 44.51406 20.73084 5863 ft 194 kts 98°
2026-05-01 09:31 44.51390 20.74936 5777 ft 189 kts 76°
2026-05-01 09:31 44.51882 20.76618 5686 ft 187 kts 54°
2026-05-01 09:31 44.53890 20.78854 5499 ft 186 kts 32°
2026-05-01 09:32 44.54968 20.79808 5419 ft 186 kts 32°
2026-05-01 09:32 44.57264 20.81382 5231 ft 186 kts
2026-05-01 09:32 44.58550 20.81202 5148 ft 189 kts 343°
2026-05-01 09:33 44.59671 20.80245 5064 ft 192 kts 318°
2026-05-01 09:33 44.60452 20.78719 4985 ft 194 kts 303°
2026-05-01 09:33 44.61875 20.75529 4817 ft 193 kts 304°
2026-05-01 09:34 44.62578 20.73960 4742 ft 192 kts 304°
2026-05-01 09:34 44.63290 20.72372 4656 ft 192 kts 303°
2026-05-01 09:34 44.64711 20.69198 4486 ft 192 kts 304°
2026-05-01 09:35 44.65419 20.67612 4408 ft 191 kts 304°
2026-05-01 09:35 44.66853 20.64460 4245 ft 191 kts 304°
2026-05-01 09:35 44.67568 20.62889 4159 ft 190 kts 303°
2026-05-01 09:36 44.68266 20.61338 4092 ft 190 kts 304°
2026-05-01 09:36 44.68969 20.59774 4011 ft 189 kts 304°
2026-05-01 09:36 44.69672 20.58207 3813 ft 191 kts 304°
2026-05-01 09:36 44.70379 20.56627 3518 ft 187 kts 304°
2026-05-01 09:37 44.71076 20.55071 3472 ft 188 kts 303°
2026-05-01 09:37 44.72469 20.51959 3316 ft 188 kts 303°
2026-05-01 09:37 44.73164 20.50404 3251 ft 188 kts 303°
2026-05-01 09:38 44.74534 20.47337 2906 ft 181 kts 304°
2026-05-01 09:38 44.75197 20.45852 2633 ft 176 kts 304°
2026-05-01 09:38 44.75842 20.44408 2401 ft 173 kts 304°
2026-05-01 09:39 44.77038 20.41722 1954 ft 152 kts 305°
2026-05-01 09:39 44.77581 20.40505 1747 ft 142 kts 304°
2026-05-01 09:39 44.78102 20.39334 1553 ft 140 kts 305°
2026-05-01 09:40 44.78600 20.38216 1369 ft 130 kts 304°
2026-05-01 09:40 44.79529 20.36129 1010 ft 127 kts 305°
2026-05-01 09:40 44.80001 20.35069 836 ft 128 kts 303°
2026-05-01 09:41 44.80470 20.34014 672 ft 127 kts 304°
2026-05-01 09:41 44.81395 20.31933 333 ft 125 kts 304°
2026-05-01 09:41 44.81810 20.30989 307 ft 94 kts 302°
2026-05-01 09:42 44.82066 20.30404 306 ft 50 kts 301°
2026-05-01 09:42 44.82166 20.30086 305 ft 23 kts 276°
2026-05-01 09:42 44.82165 20.29834 307 ft 9 kts 267°
2026-05-01 09:43 44.82117 20.29619 309 ft 14 kts 264°
2026-05-01 09:43 44.82063 20.29495 307 ft 17 kts 213°
2026-05-01 09:43 44.81959 20.29404 307 ft 16 kts 212°
2026-05-01 09:44 44.81928 20.29293 307 ft 0 kts 295°
2026-05-01 09:44 44.81930 20.29288 309 ft 1 kts 297°
2026-05-01 09:44 44.81934 20.29278 307 ft 2 kts 300°
2026-05-01 09:45 44.81935 20.29277 307 ft 0 kts 300°
2026-05-01 09:46 44.81934 20.29278 307 ft 0 kts 302°